Lapse_Rate
1.7 1.4 -0.0 -1.1 -0.6 0.1 0.4 1.2 3.5 3.6 1.4 -0.2 0.1 -0.5 -0.6 0.2 1.8 2.0 1.1 2.8 4.1 4.7 5.3 5.9 6.4 7.0 7.4 8.7 8.3 8.1 9.2 9.1 9.1 9.3 9.3 9.4 9.4 9.4
-0.4 -1.1 -1.6 -1.8 -1.7 -1.0 -0.2 0.5 1.7 2.4 3.7 0.7 0.0 -0.3 -0.1 0.3 1.0 0.2 1.3 2.2 3.3 4.6 5.8 6.0 7.5 8.6 7.5 7.2 7.9 8.3 9.2 9.2 9.3 9.3 9.4 9.1 9.1 9.0
-0.8 -1.0 -1.7 -1.3 -1.5 -1.5 -1.4 -0.7 -0.7 0.3 1.5 -0.6 -0.1 -0.3 -0.1 0.7 1.6 1.7 2.4 3.4 3.8 5.0 5.8 7.0 7.4 7.0 7.8 8.9 9.2 9.2 9.2 9.4 9.4 9.3 8.9 8.8 8.9 8.9
-0.4 -0.9 -1.4 -1.2 -1.5 -1.5 -1.2 -1.2 -1.0 -0.8 1.4 1.7 0.9 1.2 1.3 1.7 1.6 2.7 3.6 4.4 3.9 5.2 6.5 7.0 7.7 7.9 7.4 7.0 7.5 9.0 9.3 8.7 8.8 8.7 8.7 8.7 8.6 8.5
0.2 0.1 -0.3 -0.5 -1.0 -1.3 -1.0 -0.7 -0.3 0.4 0.5 1.9 1.2 1.7 2.1 2.6 3.0 2.0 2.7 3.5 4.7 5.3 6.1 6.2 5.7 5.7 6.0 6.2 6.3 6.9 7.9 7.1 7.2 7.4 7.9 9.1 9.3 9.3
0.2 -0.1 -0.6 -0.7 -1.1 -0.5 0.4 0.3 0.9 1.2 1.4 2.0 2.4 2.3 2.7 3.2 2.1 2.5 3.4 3.0 2.8 4.2 4.0 4.5 4.8 4.9 5.3 5.5 5.7 6.0 6.1 6.3 6.8 7.3 8.4 9.2 9.2 9.1
-1.2 -0.8 -0.1 1.3 2.1 2.0 1.3 1.2 1.8 1.8 1.8 2.0 2.4 1.8 0.4 2.6 2.8 2.1 2.5 1.8 1.2 1.1 1.2 2.1 2.6 2.7 3.1 3.9 4.3 4.8 5.6 6.6 7.1 7.8 8.7 9.3 9.1 9.1
-0.3 -0.2 0.9 1.8 3.1 3.7 3.7 2.9 1.8 1.3 1.3 -0.3 -1.5 1.8 2.3 1.9 1.7 2.0 0.6 -0.0 0.4 2.3 1.1 1.3 1.9 1.1 1.8 2.9 3.9 5.3 5.6 5.9 6.6 7.6 8.1 9.3 8.7 8.6
-0.1 0.2 0.7 1.1 0.4 -0.1 2.1 2.9 3.0 4.5 4.2 1.7 2.4 2.4 2.4 2.2 0.6 0.5 2.3 -0.1 0.7 1.9 1.4 -0.2 0.7 0.7 2.3 3.0 3.5 4.0 5.3 6.4 6.8 7.6 8.1 8.1 8.3 8.5
-1.1 -1.3 -1.1 -0.7 -0.0 0.6 0.5 0.8 1.1 1.8 3.0 4.0 2.6 2.6 2.4 3.0 2.1 1.7 1.4 1.6 2.2 1.9 1.5 -0.8 0.2 0.4 0.6 1.6 2.4 4.4 5.7 5.7 5.9 6.1 6.1 6.4 6.6 7.7
-1.1 -1.1 -0.3 0.4 3.9 3.1 1.2 1.4 1.2 2.0 4.1 5.5 5.8 6.4 7.1 6.9 7.2 2.0 1.1 0.1 1.3 2.6 1.9 1.9 0.7 -0.2 -0.5 -0.2 1.6 3.6 4.7 4.7 5.1 5.6 5.9 5.8 5.8 5.8
-0.5 0.1 3.1 2.0 4.4 4.6 1.4 1.6 1.9 2.2 2.1 3.0 3.0 3.7 3.9 4.5 4.6 2.8 -0.9 -1.9 -1.1 0.2 2.2 4.1 1.5 1.8 0.0 -1.0 -0.1 2.1 2.4 3.4 4.3 4.9 5.2 5.1 5.5 5.6
0.0 0.7 1.1 4.1 4.8 5.4 4.8 2.4 3.1 3.2 3.7 2.2 2.3 2.3 2.6 2.6 2.8 3.0 2.3 0.0 1.7 2.3 3.9 3.9 1.7 4.7 5.7 1.2 -1.0 -0.3 1.2 1.5 1.9 2.4 3.5 4.8 5.3 6.1
0.6 0.6 1.1 4.3 5.1 5.3 4.7 5.6 6.1 4.4 2.6 2.9 2.6 1.8 1.8 1.9 3.5 3.4 3.2 3.2 2.8 2.4 3.3 4.2 3.2 2.0 4.1 3.7 3.0 0.0 1.5 1.9 1.6 1.5 2.3 3.3 4.6 5.3
1.2 2.2 4.0 5.0 5.2 4.0 5.2 6.1 5.4 3.1 3.1 1.5 1.5 0.9 2.0 3.2 2.8 2.4 2.9 2.7 2.7 2.7 3.9 3.9 2.4 2.2 4.4 4.7 4.6 3.3 3.3 1.9 2.4 1.2 1.7 2.9 2.9 3.8
2.4 0.7 3.2 4.6 4.8 4.4 4.5 4.0 3.8 3.2 1.4 0.0 -0.0 3.0 3.1 2.6 2.1 2.0 1.8 1.8 1.6 0.2 2.9 3.9 2.8 1.8 3.6 4.6 4.9 3.8 3.8 4.7 2.7 3.8 4.2 4.0 4.3 4.5
2.0 1.3 1.7 2.1 2.5 2.8 3.1 3.2 3.0 3.2 1.3 1.8 2.7 2.5 2.6 2.4 2.3 2.1 2.0 2.0 1.2 1.4 0.4 1.5 3.5 3.9 3.7 3.9 3.8 4.0 4.1 4.3 3.9 3.8 4.1 3.8 3.9 4.3
1.4 1.1 1.3 1.5 1.3 2.7 2.9 3.0 2.7 4.3 3.5 3.0 2.5 2.4 2.4 2.3 2.0 2.0 2.0 0.5 1.2 1.9 1.5 1.9 2.0 2.2 3.1 2.4 4.1 3.9 4.6 3.8 4.1 4.4 4.1 5.1 4.9 4.9
0.6 -0.0 -0.2 0.1 0.3 0.8 0.8 0.1 1.5 3.4 2.6 2.3 2.4 2.4 2.4 2.3 2.9 1.9 -1.5 0.0 1.1 1.3 1.3 1.3 0.1 3.4 4.8 4.3 2.9 6.8 4.2 4.1 5.1 4.7 5.4 6.3 6.6 5.5
-0.9 -1.1 -0.7 0.1 0.4 0.1 -0.5 -1.5 -1.2 2.5 3.0 2.5 2.3 2.5 2.3 2.4 2.4 0.8 0.1 0.6 1.6 1.6 1.5 2.6 2.0 0.5 4.2 4.9 5.5 2.7 5.3 5.2 6.0 5.9 5.6 6.1 6.5 6.7
-1.2 -1.3 -0.7 -0.6 -0.5 -0.7 -1.0 -2.2 -3.4 -2.2 0.5 2.7 2.3 2.2 2.2 2.4 2.5 0.1 1.4 3.9 5.1 4.2 3.3 2.6 2.7 5.1 4.9 4.9 5.2 3.8 3.7 6.4 8.0 7.0 6.0 6.8 7.0 7.3
-0.9 -1.2 -0.8 -0.9 -1.3 -2.5 -3.6 -4.3 -5.2 -3.7 -2.8 -2.5 -0.9 1.1 1.8 0.9 1.8 2.0 2.4 2.7 2.9 3.2 3.5 3.6 3.5 4.3 4.6 5.1 5.3 5.4 4.7 5.1 7.0 6.6 7.0 7.5 7.2 6.9
-1.4 -1.5 -1.9 -2.1 -2.8 -3.9 -5.5 -5.6 -4.7 -3.4 -3.6 -3.2 -2.5 -1.3 -0.7 1.0 1.8 2.2 2.7 3.2 3.5 3.5 3.3 4.0 4.5 4.8 4.7 5.1 5.6 5.8 6.6 6.8 6.7 5.9 5.3 7.1 8.0 8.3
Wind_Speed
4 3 3 3 3 3 2 2 4 3 4 4 3 4 5 5 5 4 6 7 12 13 13 14 17 19 17 18 17 17 18 18 17 17 18 18 18 20
3 6 4 3 3 3 3 1 1 3 2 2 1 2 2 4 5 6 5 7 11 12 15 16 17 17 16 17 17 17 17 18 18 18 18 18 18 18
5 6 6 5 4 3 3 3 3 2 2 2 2 2 1 1 2 3 6 8 10 12 13 14 13 14 15 16 17 16 16 17 17 18 17 17 18 18
6 7 6 5 6 4 4 5 4 3 2 2 2 1 1 2 2 3 5 6 7 8 9 11 11 15 15 16 17 17 16 15 15 17 17 19 19 19
6 7 6 6 5 4 5 5 4 4 3 2 2 1 1 0 1 2 2 4 5 4 7 12 14 16 14 12 14 15 15 16 17 17 18 19 19 20
7 7 7 7 6 6 5 5 4 4 3 2 2 2 2 1 2 1 2 2 2 9 9 4 12 13 14 15 14 13 14 15 15 16 17 19 19 20
7 7 7 9 11 7 4 4 3 2 2 2 1 2 1 1 0 1 1 2 3 1 2 7 10 12 13 12 12 13 13 14 17 18 19 21 21 21
8 6 6 9 8 9 9 7 4 3 2 2 1 1 1 1 0 0 0 2 3 1 3 7 8 5 10 13 13 15 16 16 17 18 19 21 21 22
6 6 5 4 6 4 5 4 4 1 3 4 2 2 2 3 2 1 1 2 3 4 2 4 2 3 10 13 18 15 11 10 11 14 17 18 20 22
5 5 5 4 2 4 4 4 4 3 3 1 3 3 3 5 5 5 4 3 3 4 2 2 2 4 7 16 13 6 3 13 15 15 17 18 20 22
4 4 4 3 4 7 4 3 3 3 5 5 3 4 5 6 6 3 1 2 2 2 0 1 3 5 3 3 5 3 12 19 18 17 18 20 20 21
3 4 6 4 4 3 3 1 1 2 2 3 3 4 5 3 5 4 3 2 2 2 2 2 1 2 4 2 3 13 17 17 18 20 21 18 18 13
3 1 1 2 3 3 2 2 3 2 2 0 1 1 1 2 2 3 1 2 2 3 4 1 2 2 3 4 2 5 11 12 13 16 18 18 17 15
2 1 1 3 3 3 2 4 3 2 1 0 0 1 0 1 2 6 7 8 10 9 11 10 3 3 4 7 7 3 6 13 11 6 10 16 18 21
2 3 2 3 3 2 3 4 2 1 1 1 0 1 1 3 7 6 9 10 11 11 16 18 7 6 6 7 10 10 10 4 11 4 4 6 6 12
1 2 3 2 1 1 0 2 0 2 2 2 2 2 3 3 3 2 2 3 4 4 16 19 18 7 8 8 9 11 9 6 6 8 8 7 12 15
2 1 1 1 1 1 1 1 0 0 1 1 1 2 3 3 3 3 3 3 3 7 7 6 15 15 11 10 10 9 10 10 9 10 8 10 9 8
1 1 1 1 2 2 2 2 2 3 1 2 2 3 4 4 4 4 3 2 5 7 7 6 6 6 6 8 19 9 9 9 8 8 7 9 11 8
2 2 2 2 2 2 2 2 2 3 2 2 3 3 4 4 7 4 2 3 6 6 6 4 4 5 8 11 4 16 5 5 9 10 8 8 10 11
2 2 3 3 3 3 2 2 3 3 3 3 4 5 4 5 5 4 3 4 6 7 7 5 4 3 7 8 9 13 18 7 7 9 10 9 11 26
2 3 3 3 3 3 3 3 3 3 3 5 4 4 6 5 7 3 6 13 12 7 8 8 7 15 8 7 7 11 9 17 18 11 12 11 12 11
3 4 4 3 3 3 3 3 3 3 3 3 4 5 5 4 7 7 6 7 7 7 8 9 9 8 7 8 11 14 11 9 17 25 27 22 12 9
4 4 4 4 3 3 3 3 4 4 4 4 4 4 4 6 7 6 7 7 8 8 8 9 8 8 9 10 14 12 16 14 10 12 11 20 25 28
Wind_Direction
24 51 90 72 77 100 140 169 204 200 229 190 176 182 152 144 175 146 149 231 255 266 269 276 283 287 281 282 286 286 288 290 287 285 284 286 285 282
60 85 66 73 79 73 87 76 348 158 219 66 51 94 141 139 194 181 234 244 257 264 270 279 272 280 283 285 285 287 287 285 285 287 287 289 290 288
70 81 81 80 73 58 56 40 53 38 130 95 72 74 100 178 190 202 239 247 254 266 274 278 279 287 288 290 291 291 290 290 288 289 294 291 285 286
90 93 90 91 86 86 85 83 79 46 85 104 81 114 112 234 197 214 230 251 262 276 288 286 291 297 292 296 293 289 285 294 297 294 288 282 281 280
97 102 108 105 88 80 79 80 70 76 68 91 126 180 175 119 24 306 273 286 284 307 306 306 299 294 297 300 303 302 303 303 295 291 286 280 280 280
79 84 83 86 98 93 90 92 93 81 76 99 72 51 42 6 43 348 319 11 318 311 312 306 317 302 299 303 303 297 295 293 287 283 277 275 276 277
77 84 94 104 107 114 116 103 94 75 69 64 76 48 5 12 144 305 307 312 287 278 293 295 306 304 303 301 301 300 293 288 290 290 286 282 282 283
91 63 64 66 78 89 91 104 124 110 88 108 163 147 248 203 24 350 315 31 330 277 335 304 298 296 302 308 299 296 299 294 292 293 288 285 283 281
110 109 89 69 77 67 52 61 46 71 166 165 173 208 211 208 133 7 246 178 233 280 5 287 312 292 295 293 302 299 294 303 308 309 306 299 294 289
96 97 97 84 77 79 64 58 38 14 342 102 158 192 208 234 198 190 201 221 269 281 177 272 297 282 293 292 301 294 313 333 314 311 307 301 298 293
89 88 99 72 75 74 70 52 23 350 3 20 359 296 274 290 265 126 234 99 316 262 289 268 302 303 286 300 331 332 322 317 312 308 303 304 297 293
70 53 107 93 51 39 101 99 315 274 328 348 349 356 16 25 63 68 139 142 220 333 226 292 286 332 321 276 274 292 285 286 297 303 304 301 299 295
127 108 1 73 353 334 147 180 224 218 285 320 296 327 30 36 58 59 152 157 219 255 289 8 224 265 230 297 254 245 264 278 284 291 291 298 297 292
154 186 251 315 332 327 353 251 271 81 119 263 44 318 275 305 310 300 285 267 241 240 267 265 260 215 264 285 283 292 295 287 268 267 281 291 291 293
163 230 246 291 319 351 314 283 117 132 175 102 251 269 232 301 304 293 293 289 275 268 273 271 240 259 258 271 283 298 312 300 288 266 264 270 273 282
55 335 284 274 199 263 310 23 184 197 176 187 217 272 301 303 292 269 278 284 277 274 278 278 265 239 267 262 270 283 287 285 291 288 281 279 274 265
155 354 335 33 354 326 282 257 276 296 126 257 312 295 285 283 283 275 270 267 271 300 294 285 276 263 255 261 275 269 280 279 276 280 291 291 288 279
90 232 242 225 230 242 246 258 233 266 270 280 276 272 282 279 276 267 244 253 281 287 283 284 292 311 298 250 239 259 265 268 271 273 270 275 285 282
196 229 213 207 233 233 231 218 228 248 224 248 259 269 271 269 290 276 254 257 280 272 271 270 274 280 295 298 260 263 235 275 289 286 273 265 277 285
197 204 224 226 224 222 233 232 258 230 251 239 246 265 260 266 277 268 258 266 278 281 281 264 271 223 264 278 287 286 272 262 270 277 286 282 276 279
227 233 228 228 230 227 232 239 235 255 242 254 239 275 277 273 278 256 270 290 293 294 289 285 273 281 282 282 277 280 285 277 272 278 287 289 292 293
234 234 236 229 227 221 230 230 247 261 266 261 254 259 257 255 274 274 273 276 278 274 274 281 287 284 277 270 275 284 287 286 278 278 271 266 278 282
233 233 233 232 230 229 222 224 227 244 236 244 249 250 249 264 261 264 270 270 273 278 277 284 288 287 279 275 275 281 276 289 295 299 283 273 272 271